TERRESTAR-1

Last updated on Thu Aug 13 2026 00:02:58 GMT+0000 (Coordinated Universal Time)

1 35496U 09035A 26224.55008137 -.00000073 00000+0 00000+0 0 9998 2 35496 5.2048 48.7261 0002442 80.6646 278.6283 1.00271561 62690
UTC large
Height (km)
Speed (km/s)
/
Latitude / Longitude
Inclination (degrees)
Orbital Period (minutes)
Azimuth
Elevation
Range (km)
Doppler Factor

Next 0 passes for location: London (51.5072 / 0.1276)

No passes found over London.
TERRESTAR-1